Zurück zum Katalog

STARLINK-3664

AktivKommunikationVLEO
NORAD 51984·PAYLOAD·🇺🇸 United States

Gestartet Mar 9, 2022 von Cape Canaveral Space Force Station

Loading…

Nächste Überflüge (nächste 24 Stunden)

TLE

AktuellSource: CelesTrak SupGP

Epoche: Sep 14, 2026, 21:23 UTC

1 51984C 22025AE  26257.89145833  .00044466  00000+0  12724-2 0  2579
2 51984  53.1582 261.8708 0001258  91.0072  50.1080 15.35372214    18

Verfolge STARLINK-3664 in Echtzeit mit AllMySat

Download on the App Store